******** Week 354 almanac for PRN-1 ******** ID: 1 Health: 0 Eccentricity: 0.001385211945 Time of Applicability(s): 61440 Orbital Inclination(rad): 0.9584108231 Rate of Right Ascen(r/s): -7.931758961e-09 SQRT(A) (m 1/2): 5153.585449 Right Ascen at Week(rad): -2.393144853 Argument of Perigee(rad): -0.01093260917 Mean Anom(rad): -0.7525553954 Af0(s): 0.0002705690796 Af1(s/s): -3.637979e-12 week: 354 ******** Week 354 almanac for PRN-2 ******** ID: 2 Health: 0 Eccentricity: 0.01698112488 Time of Applicability(s): 61440 Orbital Inclination(rad): 0.9639415429 Rate of Right Ascen(r/s): -7.726036106e-09 SQRT(A) (m 1/2): 5153.567383 Right Ascen at Week(rad): -2.555866658 Argument of Perigee(rad): -0.8468866002 Mean Anom(rad): 0.6405478333 Af0(s): 1.507348633e-05 Af1(s/s): 7.275958e-12 week: 354 ******** Week 354 almanac for PRN-3 ******** ID: 3 Health: 0 Eccentricity: 0.00635433197 Time of Applicability(s): 61440 Orbital Inclination(rad): 0.9925179272 Rate of Right Ascen(r/s): -7.988904198e-09 SQRT(A) (m 1/2): 5153.602051 Right Ascen at Week(rad): -1.407042755 Argument of Perigee(rad): 1.210680855 Mean Anom(rad): -2.984849854 Af0(s): 0.0004702927734 Af1(s/s): -1.091394e-11 week: 354 ******** Week 354 almanac for PRN-4 ******** ID: 4 Health: 0 Eccentricity: 0.003734588623 Time of Applicability(s): 61440 Orbital Inclination(rad): 0.9705808035 Rate of Right Ascen(r/s): -7.668890868e-09 SQRT(A) (m 1/2): 5153.709961 Right Ascen at Week(rad): -0.3357575352 Argument of Perigee(rad): -2.909637607 Mean Anom(rad): 0.06819847889 Af0(s): 3.090064697e-05 Af1(s/s): 3.637979e-12 week: 354 ******** Week 354 almanac for PRN-5 ******** ID: 5 Health: 0 Eccentricity: 0.005375385284 Time of Applicability(s): 61440 Orbital Inclination(rad): 0.9790955953 Rate of Right Ascen(r/s): -8.126052768e-09 SQRT(A) (m 1/2): 5153.629883 Right Ascen at Week(rad): -1.466256061 Argument of Perigee(rad): 1.425913415 Mean Anom(rad): 0.6773180569 Af0(s): -0.0001801281616 Af1(s/s): 0 week: 354 ******** Week 354 almanac for PRN-6 ******** ID: 6 Health: 0 Eccentricity: 0.003862380981 Time of Applicability(s): 61440 Orbital Inclination(rad): 0.9873826868 Rate of Right Ascen(r/s): -7.623174678e-09 SQRT(A) (m 1/2): 5153.568848 Right Ascen at Week(rad): -2.443832506 Argument of Perigee(rad): -0.6215423506 Mean Anom(rad): -1.6054019 Af0(s): -0.0004770758423 Af1(s/s): -3.637979e-12 week: 354 ******** Week 354 almanac for PRN-7 ******** ID: 7 Health: 0 Eccentricity: 0.02019643784 Time of Applicability(s): 61440 Orbital Inclination(rad): 0.9509086983 Rate of Right Ascen(r/s): -7.737465153e-09 SQRT(A) (m 1/2): 5153.586914 Right Ascen at Week(rad): 0.6727614298 Argument of Perigee(rad): -2.004502431 Mean Anom(rad): -2.513493061 Af0(s): -0.0001085291016 Af1(s/s): -3.637979e-12 week: 354 ******** Week 354 almanac for PRN-8 ******** ID: 8 Health: 0 Eccentricity: 0.01142883301 Time of Applicability(s): 61440 Orbital Inclination(rad): 0.9443772957 Rate of Right Ascen(r/s): -7.794610391e-09 SQRT(A) (m 1/2): 5153.616211 Right Ascen at Week(rad): 2.721340716 Argument of Perigee(rad): 0.5020783536 Mean Anom(rad): 0.3369840457 Af0(s): 0.0003971863647 Af1(s/s): -3.637979e-12 week: 354 ******** Week 354 almanac for PRN-9 ******** ID: 9 Health: 0 Eccentricity: 0.003366470337 Time of Applicability(s): 61440 Orbital Inclination(rad): 0.9646785727 Rate of Right Ascen(r/s): -7.771752296e-09 SQRT(A) (m 1/2): 5153.535645 Right Ascen at Week(rad): -0.3996705302 Argument of Perigee(rad): 2.070964695 Mean Anom(rad): 0.9142405657 Af0(s): 0.0006089688477 Af1(s/s): 0 week: 354 ******** Week 354 almanac for PRN-10 ******** ID: 10 Health: 0 Eccentricity: 0.01097202301 Time of Applicability(s): 61440 Orbital Inclination(rad): 0.9920685187 Rate of Right Ascen(r/s): -7.977475151e-09 SQRT(A) (m 1/2): 5153.602051 Right Ascen at Week(rad): -1.409552701 Argument of Perigee(rad): -2.265806845 Mean Anom(rad): 2.330041542 Af0(s): -0.0004612486816 Af1(s/s): -3.637979e-12 week: 354 ******** Week 354 almanac for PRN-11 ******** ID: 11 Health: 0 Eccentricity: 0.00223493576 Time of Applicability(s): 61440 Orbital Inclination(rad): 0.9642171801 Rate of Right Ascen(r/s): -7.851755628e-09 SQRT(A) (m 1/2): 5153.73291 Right Ascen at Week(rad): -2.424087747 Argument of Perigee(rad): -2.249090724 Mean Anom(rad): -0.6422522148 Af0(s): -0.000371561438 Af1(s/s): 1.455192e-11 week: 354 ******** Week 354 almanac for PRN-12 ******** ID: 12 Health: 0 Eccentricity: 0.009078979492 Time of Applicability(s): 61440 Orbital Inclination(rad): 0.9587823341 Rate of Right Ascen(r/s): -7.943188008e-09 SQRT(A) (m 1/2): 5153.498535 Right Ascen at Week(rad): 1.790715468 Argument of Perigee(rad): 1.535591169 Mean Anom(rad): -3.131386964 Af0(s): -0.0004793368652 Af1(s/s): 0 week: 354 ******** Week 354 almanac for PRN-13 ******** ID: 13 Health: 0 Eccentricity: 0.009902477264 Time of Applicability(s): 61440 Orbital Inclination(rad): 0.9762912866 Rate of Right Ascen(r/s): -7.566029441e-09 SQRT(A) (m 1/2): 5153.635254 Right Ascen at Week(rad): -0.2252311485 Argument of Perigee(rad): 1.002056472 Mean Anom(rad): 0.06349579414 Af0(s): 0.0005449065308 Af1(s/s): 0 week: 354 ******** Week 354 almanac for PRN-14 ******** ID: 14 Health: 0 Eccentricity: 0.006514072418 Time of Applicability(s): 61440 Orbital Inclination(rad): 0.942100293 Rate of Right Ascen(r/s): -8.160339911e-09 SQRT(A) (m 1/2): 5153.577148 Right Ascen at Week(rad): 1.736750878 Argument of Perigee(rad): -2.763579866 Mean Anom(rad): 2.956370467 Af0(s): 0.000576560852 Af1(s/s): 3.637979e-12 week: 354 ******** Week 354 almanac for PRN-15 ******** ID: 15 Health: 0 Eccentricity: 0.01659679413 Time of Applicability(s): 61440 Orbital Inclination(rad): 0.9424298592 Rate of Right Ascen(r/s): -8.057478483e-09 SQRT(A) (m 1/2): 5153.629395 Right Ascen at Week(rad): -0.5426119983 Argument of Perigee(rad): 1.494450448 Mean Anom(rad): -0.6719326458 Af0(s): 0.0002984550293 Af1(s/s): 3.637979e-12 week: 354 ******** Week 354 almanac for PRN-16 ******** ID: 16 Health: 0 Eccentricity: 0.01505041122 Time of Applicability(s): 61440 Orbital Inclination(rad): 0.9579434383 Rate of Right Ascen(r/s): -7.966046103e-09 SQRT(A) (m 1/2): 5153.561035 Right Ascen at Week(rad): 1.80777314 Argument of Perigee(rad): 0.9225066849 Mean Anom(rad): 1.335920125 Af0(s): 0.0001507348633 Af1(s/s): 7.275958e-12 week: 354 ******** Week 354 almanac for PRN-17 ******** ID: 17 Health: 0 Eccentricity: 0.01281309128 Time of Applicability(s): 61440 Orbital Inclination(rad): 0.9601545278 Rate of Right Ascen(r/s): -7.623174678e-09 SQRT(A) (m 1/2): 5153.52002 Right Ascen at Week(rad): 2.82531735 Argument of Perigee(rad): -1.134193038 Mean Anom(rad): 0.2268890911 Af0(s): -2.863962402e-05 Af1(s/s): -1.091394e-11 week: 354 ******** Week 354 almanac for PRN-18 ******** ID: 18 Health: 0 Eccentricity: 0.005692481995 Time of Applicability(s): 61440 Orbital Inclination(rad): 0.9723364924 Rate of Right Ascen(r/s): -7.760323248e-09 SQRT(A) (m 1/2): 5153.603027 Right Ascen at Week(rad): -2.448258805 Argument of Perigee(rad): -2.857332832 Mean Anom(rad): -1.75449165 Af0(s): -0.0003534732544 Af1(s/s): 1.091394e-11 week: 354 ******** Week 354 almanac for PRN-19 ******** ID: 19 Health: 0 Eccentricity: 0.01097917557 Time of Applicability(s): 61440 Orbital Inclination(rad): 0.959363569 Rate of Right Ascen(r/s): -7.588887536e-09 SQRT(A) (m 1/2): 5153.661621 Right Ascen at Week(rad): 2.869214442 Argument of Perigee(rad): 2.916706053 Mean Anom(rad): 2.088027235 Af0(s): 0.0005426455078 Af1(s/s): 3.637979e-12 week: 354 ******** Week 354 almanac for PRN-20 ******** ID: 20 Health: 0 Eccentricity: 0.003684043884 Time of Applicability(s): 589824 Orbital Inclination(rad): 0.9607777075 Rate of Right Ascen(r/s): -7.897471818e-09 SQRT(A) (m 1/2): 5153.615234 Right Ascen at Week(rad): -1.359217458 Argument of Perigee(rad): -2.036017197 Mean Anom(rad): -0.4026242671 Af0(s): 0.0002856425659 Af1(s/s): 0 week: 354 ******** Week 354 almanac for PRN-21 ******** ID: 21 Health: 0 Eccentricity: 0.0005626678467 Time of Applicability(s): 61440 Orbital Inclination(rad): 0.9619521615 Rate of Right Ascen(r/s): -8.286059433e-09 SQRT(A) (m 1/2): 5153.6875 Right Ascen at Week(rad): -1.399492693 Argument of Perigee(rad): -0.4740936904 Mean Anom(rad): 2.991113109 Af0(s): 0.0003022234009 Af1(s/s): 7.275958e-12 week: 354 ******** Week 354 almanac for PRN-22 ******** ID: 22 Health: 0 Eccentricity: 0.01221513748 Time of Applicability(s): 61440 Orbital Inclination(rad): 0.9573801797 Rate of Right Ascen(r/s): -7.988904198e-09 SQRT(A) (m 1/2): 5153.563477 Right Ascen at Week(rad): 1.811114866 Argument of Perigee(rad): -0.9970687872 Mean Anom(rad): 0.8800188625 Af0(s): -4.522045898e-05 Af1(s/s): 3.637979e-12 week: 354 ******** Week 354 almanac for PRN-23 ******** ID: 23 Health: 0 Eccentricity: 0.005999088287 Time of Applicability(s): 61440 Orbital Inclination(rad): 0.9870591127 Rate of Right Ascen(r/s): -8.034620388e-09 SQRT(A) (m 1/2): 5153.649902 Right Ascen at Week(rad): -1.441452835 Argument of Perigee(rad): -2.747628114 Mean Anom(rad): -2.854175738 Af0(s): 0.0004748148193 Af1(s/s): 3.637979e-12 week: 354 ******** Week 354 almanac for PRN-24 ******** ID: 24 Health: 0 Eccentricity: 0.01782226562 Time of Applicability(s): 61440 Orbital Inclination(rad): 0.9349876555 Rate of Right Ascen(r/s): -7.863184676e-09 SQRT(A) (m 1/2): 5153.600586 Right Ascen at Week(rad): 0.5650453438 Argument of Perigee(rad): 1.129934518 Mean Anom(rad): -1.533206308 Af0(s): -0.0001243562622 Af1(s/s): 1.455192e-11 week: 354 ******** Week 354 almanac for PRN-25 ******** ID: 25 Health: 0 Eccentricity: 0.01294279099 Time of Applicability(s): 61440 Orbital Inclination(rad): 0.9470737463 Rate of Right Ascen(r/s): -8.091765626e-09 SQRT(A) (m 1/2): 5153.674316 Right Ascen at Week(rad): 1.697335886 Argument of Perigee(rad): 1.150858226 Mean Anom(rad): 2.999939865 Af0(s): 0.000354980603 Af1(s/s): -3.637979e-12 week: 354 ******** Week 354 almanac for PRN-26 ******** ID: 26 Health: 0 Eccentricity: 0.01097106934 Time of Applicability(s): 61440 Orbital Inclination(rad): 0.9278390654 Rate of Right Ascen(r/s): -8.308917528e-09 SQRT(A) (m 1/2): 5153.62207 Right Ascen at Week(rad): 1.623583468 Argument of Perigee(rad): 0.7022808228 Mean Anom(rad): 2.169836798 Af0(s): -0.0002479588501 Af1(s/s): -7.275958e-12 week: 354 ******** Week 354 almanac for PRN-27 ******** ID: 27 Health: 0 Eccentricity: 0.01418066025 Time of Applicability(s): 61440 Orbital Inclination(rad): 0.9534912988 Rate of Right Ascen(r/s): -7.680319916e-09 SQRT(A) (m 1/2): 5153.614746 Right Ascen at Week(rad): 2.752976074 Argument of Perigee(rad): 0.8665212547 Mean Anom(rad): 0.4275604431 Af0(s): -1.658083496e-05 Af1(s/s): -7.275958e-12 week: 354 ******** Week 354 almanac for PRN-28 ******** ID: 28 Health: 0 Eccentricity: 0.0004000663757 Time of Applicability(s): 61440 Orbital Inclination(rad): 0.9618922404 Rate of Right Ascen(r/s): -7.657461821e-09 SQRT(A) (m 1/2): 5153.717285 Right Ascen at Week(rad): 0.6465369497 Argument of Perigee(rad): 0.349597817 Mean Anom(rad): -2.494392079 Af0(s): -0.0004815978882 Af1(s/s): 3.637979e-12 week: 354 ******** Week 354 almanac for PRN-29 ******** ID: 29 Health: 0 Eccentricity: 0.003254413605 Time of Applicability(s): 61440 Orbital Inclination(rad): 0.9627970494 Rate of Right Ascen(r/s): -7.623174678e-09 SQRT(A) (m 1/2): 5153.736816 Right Ascen at Week(rad): 2.841904266 Argument of Perigee(rad): 2.751947303 Mean Anom(rad): 0.3016159765 Af0(s): -0.0003090064697 Af1(s/s): 7.275958e-12 week: 354 ******** Week 354 almanac for PRN-30 ******** ID: 30 Health: 0 Eccentricity: 0.007887840271 Time of Applicability(s): 61440 Orbital Inclination(rad): 0.9361681017 Rate of Right Ascen(r/s): -7.908900866e-09 SQRT(A) (m 1/2): 5153.726562 Right Ascen at Week(rad): 0.6643859547 Argument of Perigee(rad): -2.346890239 Mean Anom(rad): -2.622780578 Af0(s): 7.235273437e-05 Af1(s/s): 1.091394e-11 week: 354 ******** Week 354 almanac for PRN-31 ******** ID: 31 Health: 0 Eccentricity: 0.01086139679 Time of Applicability(s): 61440 Orbital Inclination(rad): 0.9546657528 Rate of Right Ascen(r/s): -7.726036106e-09 SQRT(A) (m 1/2): 5153.711426 Right Ascen at Week(rad): 0.6967954184 Argument of Perigee(rad): 0.931547659 Mean Anom(rad): 2.701976456 Af0(s): -0.000135661377 Af1(s/s): 3.637979e-12 week: 354 ******** Week 354 almanac for PRN-32 ******** ID: 32 Health: 0 Eccentricity: 0.009198188782 Time of Applicability(s): 61440 Orbital Inclination(rad): 0.9677525264 Rate of Right Ascen(r/s): -7.703178011e-09 SQRT(A) (m 1/2): 5153.674316 Right Ascen at Week(rad): -0.3828225825 Argument of Perigee(rad): -2.025978162 Mean Anom(rad): 1.036942551 Af0(s): -0.0001243562622 Af1(s/s): 1.818989e-11 week: 354